Time,TemperatureF,DewpointF,PressureIn,WindDirection,WindDirectionDegrees,WindSpeedMPH,WindSpeedGustMPH,Humidity,HourlyPrecipIn,Conditions,Clouds,dailyrainin,SoftwareType,DateUTC
2013-04-15 00:11:00,71.1,61.0,29.68,SSE,150,0.0,-999.0,70,-99.99,,,0.00,weatherlink.com 1.10,2013-04-15 06:11:00,
2013-04-15 00:26:00,70.4,61.0,29.68,SE,141,0.0,-999.0,73,-99.99,,,0.00,weatherlink.com 1.10,2013-04-15 06:26:00,
2013-04-15 00:41:00,69.9,62.0,29.68,SE,141,0.0,-999.0,76,-99.99,,,0.00,weatherlink.com 1.10,2013-04-15 06:41:00,
2013-04-15 00:56:00,69.7,62.0,29.69,South,181,0.0,-999.0,77,-99.99,,,0.00,weatherlink.com 1.10,2013-04-15 06:56:00,
2013-04-15 01:41:00,68.6,63.0,29.68,ESE,123,0.0,-999.0,81,-99.99,,,0.00,weatherlink.com 1.10,2013-04-15 07:41:00,
2013-04-15 02:26:00,67.8,63.0,29.68,ESE,118,0.0,-999.0,85,-99.99,,,0.00,weatherlink.com 1.10,2013-04-15 08:26:00,
2013-04-15 02:56:00,67.2,63.0,29.68,ESE,123,0.0,-999.0,86,-99.99,,,0.00,weatherlink.com 1.10,2013-04-15 08:56:00,
2013-04-15 03:11:00,66.8,63.0,29.68,ESE,123,0.0,-999.0,86,-99.99,,,0.00,weatherlink.com 1.10,2013-04-15 09:11:00,
2013-04-15 03:26:00,66.5,63.0,29.69,ESE,123,0.0,-999.0,88,-99.99,,,0.00,weatherlink.com 1.10,2013-04-15 09:26:00,
2013-04-15 04:11:00,66.8,64.0,29.69,South,180,0.0,-999.0,89,-99.99,,,0.00,weatherlink.com 1.10,2013-04-15 10:11:00,
2013-04-15 04:26:00,66.7,63.0,29.69,South,171,0.0,-999.0,88,-99.99,,,0.00,weatherlink.com 1.10,2013-04-15 10:26:00,
2013-04-15 05:11:00,66.5,63.0,29.71,South,187,0.0,-999.0,88,-99.99,,,0.00,weatherlink.com 1.10,2013-04-15 11:11:00,
2013-04-15 05:26:00,66.6,63.0,29.71,SE,141,0.0,-999.0,88,-99.99,,,0.00,weatherlink.com 1.10,2013-04-15 11:26:00,
2013-04-15 05:41:00,66.6,63.0,29.71,SSE,164,0.0,-999.0,87,-99.99,,,0.00,weatherlink.com 1.10,2013-04-15 11:41:00,
2013-04-15 06:26:00,66.7,62.0,29.72,SSW,201,4.0,-999.0,85,-99.99,,,0.00,weatherlink.com 1.10,2013-04-15 12:26:00,
2013-04-15 06:56:00,66.8,62.0,29.73,South,169,0.0,-999.0,85,-99.99,,,0.00,weatherlink.com 1.10,2013-04-15 12:56:00,
2013-04-15 07:26:00,67.5,63.0,29.73,SSW,193,0.0,-999.0,85,-99.99,,,0.00,weatherlink.com 1.10,2013-04-15 13:26:00,
2013-04-15 07:41:00,68.4,63.0,29.73,SSW,192,3.0,-999.0,84,-99.99,,,0.00,weatherlink.com 1.10,2013-04-15 13:41:00,
2013-04-15 08:26:00,71.9,64.0,29.74,SSE,159,5.0,-999.0,77,-99.99,,,0.00,weatherlink.com 1.10,2013-04-15 14:26:00,
2013-04-15 10:11:00,75.5,63.0,29.75,SE,124,4.0,-999.0,65,-99.99,,,0.00,weatherlink.com 1.10,2013-04-15 16:11:00,
2013-04-15 11:11:00,80.7,61.0,29.75,South,190,6.0,-999.0,52,-99.99,,,0.00,weatherlink.com 1.10,2013-04-15 17:11:00,
2013-04-15 11:26:00,81.7,62.0,29.74,SSW,209,6.0,-999.0,51,-99.99,,,0.00,weatherlink.com 1.10,2013-04-15 17:26:00,
2013-04-15 11:41:00,82.7,62.0,29.74,South,170,4.0,-999.0,49,-99.99,,,0.00,weatherlink.com 1.10,2013-04-15 17:41:00,
2013-04-15 11:56:00,83.0,61.0,29.73,South,179,5.0,-999.0,47,-99.99,,,0.00,weatherlink.com 1.10,2013-04-15 17:56:00,
2013-04-15 12:26:00,85.9,60.0,29.72,SSW,193,5.0,-999.0,42,-99.99,,,0.00,weatherlink.com 1.10,2013-04-15 18:26:00,
2013-04-15 12:41:00,86.9,57.0,29.72,SE,141,5.0,-999.0,36,-99.99,,,0.00,weatherlink.com 1.10,2013-04-15 18:41:00,
2013-04-15 12:56:00,87.6,57.0,29.71,SE,144,5.0,-999.0,36,-99.99,,,0.00,weatherlink.com 1.10,2013-04-15 18:56:00,
2013-04-15 13:11:00,89.4,57.0,29.71,SSW,194,7.0,-999.0,33,-99.99,,,0.00,weatherlink.com 1.10,2013-04-15 19:11:00,
2013-04-15 13:26:00,89.4,58.0,29.71,SSW,197,4.0,-999.0,34,-99.99,,,0.00,weatherlink.com 1.10,2013-04-15 19:26:00,
2013-04-15 13:41:00,89.3,57.0,29.70,SSE,150,5.0,-999.0,34,-99.99,,,0.00,weatherlink.com 1.10,2013-04-15 19:41:00,
2013-04-15 13:56:00,90.4,58.0,29.70,SSE,165,4.0,-999.0,34,-99.99,,,0.00,weatherlink.com 1.10,2013-04-15 19:56:00,
2013-04-15 14:11:00,90.4,59.0,29.69,South,169,2.0,-999.0,35,-99.99,,,0.00,weatherlink.com 1.10,2013-04-15 20:11:00,
2013-04-15 14:26:00,90.2,60.0,29.69,SSW,194,7.0,-999.0,36,-99.99,,,0.00,weatherlink.com 1.10,2013-04-15 20:26:00,
2013-04-15 14:41:00,89.7,59.0,29.68,South,183,4.0,-999.0,36,-99.99,,,0.00,weatherlink.com 1.10,2013-04-15 20:41:00,
2013-04-15 14:56:00,89.8,60.0,29.68,South,180,2.0,-999.0,37,-99.99,,,0.00,weatherlink.com 1.10,2013-04-15 20:56:00,
2013-04-15 15:26:00,87.3,60.0,29.68,South,171,4.0,-999.0,40,-99.99,,,0.00,weatherlink.com 1.10,2013-04-15 21:26:00,
2013-04-15 15:41:00,87.3,60.0,29.67,SSE,162,3.0,-999.0,40,-99.99,,,0.00,weatherlink.com 1.10,2013-04-15 21:41:00,
2013-04-15 15:56:00,90.0,60.0,29.68,South,186,4.0,-999.0,37,-99.99,,,0.00,weatherlink.com 1.10,2013-04-15 21:56:00,
2013-04-15 16:11:00,88.3,61.0,29.68,South,173,3.0,-999.0,40,-99.99,,,0.00,weatherlink.com 1.10,2013-04-15 22:11:00,
2013-04-15 16:26:00,87.8,61.0,29.67,SSE,165,4.0,-999.0,41,-99.99,,,0.00,weatherlink.com 1.10,2013-04-15 22:26:00,
2013-04-15 16:41:00,86.6,62.0,29.67,SSW,199,2.0,-999.0,43,-99.99,,,0.00,weatherlink.com 1.10,2013-04-15 22:41:00,
2013-04-15 16:56:00,86.1,61.0,29.67,SW,223,5.0,-999.0,43,-99.99,,,0.00,weatherlink.com 1.10,2013-04-15 22:56:00,
2013-04-15 17:26:00,84.8,60.0,29.67,SSE,157,1.0,-999.0,43,-99.99,,,0.00,weatherlink.com 1.10,2013-04-15 23:26:00,
2013-04-15 17:41:00,84.1,61.0,29.67,South,184,1.0,-999.0,45,-99.99,,,0.00,weatherlink.com 1.10,2013-04-15 23:41:00,
2013-04-15 17:56:00,83.6,61.0,29.68,SE,128,0.0,-999.0,46,-99.99,,,0.00,weatherlink.com 1.10,2013-04-15 23:56:00,
2013-04-15 18:11:00,83.0,61.0,29.68,South,170,1.0,-999.0,47,-99.99,,,0.00,weatherlink.com 1.10,2013-04-16 00:11:00,
2013-04-15 18:26:00,82.7,60.0,29.69,South,189,0.0,-999.0,47,-99.99,,,0.00,weatherlink.com 1.10,2013-04-16 00:26:00,
2013-04-15 18:41:00,82.3,61.0,29.69,South,186,0.0,-999.0,48,-99.99,,,0.00,weatherlink.com 1.10,2013-04-16 00:41:00,
2013-04-15 18:56:00,81.7,61.0,29.70,SSE,163,0.0,-999.0,49,-99.99,,,0.00,weatherlink.com 1.10,2013-04-16 00:56:00,
2013-04-15 19:26:00,80.6,61.0,29.69,South,188,0.0,-999.0,51,-99.99,,,0.00,weatherlink.com 1.10,2013-04-16 01:26:00,
2013-04-15 19:41:00,80.0,61.0,29.70,South,191,0.0,-999.0,52,-99.99,,,0.00,weatherlink.com 1.10,2013-04-16 01:41:00,
2013-04-15 19:56:00,79.4,61.0,29.71,SSW,192,0.0,-999.0,53,-99.99,,,0.00,weatherlink.com 1.10,2013-04-16 01:56:00,
2013-04-15 20:11:00,78.7,60.0,29.71,SSW,192,0.0,-999.0,53,-99.99,,,0.00,weatherlink.com 1.10,2013-04-16 02:11:00,
2013-04-15 20:56:00,77.2,60.0,29.74,ESE,111,0.0,-999.0,55,-99.99,,,0.00,weatherlink.com 1.10,2013-04-16 02:56:00,
2013-04-15 21:41:00,76.4,61.0,29.76,ESE,115,10.0,-999.0,60,-99.99,,,0.00,weatherlink.com 1.10,2013-04-16 03:41:00,
2013-04-15 21:56:00,75.9,61.0,29.76,SE,128,2.0,-999.0,61,-99.99,,,0.00,weatherlink.com 1.10,2013-04-16 03:56:00,
2013-04-15 23:41:00,71.3,63.0,29.77,SE,143,0.0,-999.0,74,-99.99,,,0.00,weatherlink.com 1.10,2013-04-16 05:41:00,
2013-04-15 23:56:00,70.4,62.0,29.77,South,177,0.0,-999.0,75,-99.99,,,0.00,weatherlink.com 1.10,2013-04-16 05:56:00,